Location: *
(2.5500°S, 65.9667°W)
Time: 21:17:45
(UTC+00:00)

SRMSAT - Pass Details

Date: 05 July 2022
Orbit: 848 x 865 km, 20.0° (Epoch: 07 August)

Event Time Altitude Azimuth Distance (km) Brightness Sun altitude
Exits shadow 09:32:27 20° 250° (WSW) 1,874 ? -13.9°
Maximum altitude 09:35:49 34° 198° (SSW) 1,351 ? -13.1°
Drops below altitude 10° 09:41:09 10° 133° (SE) 2,468 ? -11.9°
Sets 09:43:57 0° 124° (SE) 3,407 ? -11.3°
